EW6057 Weather Reports


time (UTC)temp
C
wind
direction
speed
KPH
gust
KPH
rain 1hr
cm
rain 24hr
cm
rain mn
cm
humidity
%
barometer
mb
20260906200044 28 143 4.8 22.5 0.00 3.84 3.84 60 1009.1
20260906194534 27 177 1.6 22.5 0.00 3.84 3.84 67 1009.3
20260906193030 26 140 1.6 22.5 0.00 3.84 3.84 67 1009.4
20260906191627 25 129 0.0 6.4 0.00 3.84 3.84 75 1009.9
20260906190008 23 211 0.0 3.2 0.00 3.84 3.84 81 1010.5
20260906184508 23 135 0.0 0.0 0.03 3.84 3.84 78 1010.3
20260906183050 22 112 0.0 0.0 0.05 3.84 3.84 81 1011.3
20260906181624 22 105 0.0 1.6 0.13 3.84 3.84 83 1012.1
20260906180039 21 99 0.0 0.0 0.20 3.84 3.84 87 1013.1
20260906174541 21 105 0.0 0.0 0.33 3.81 3.81 87 1014.2
20260906173037 21 175 0.0 0.0 0.61 3.78 3.78 89 1014.9
20260906171536 20 148 0.0 0.0 0.66 3.71 3.71 89 1015.4
20260906170038 20 150 0.0 3.2 1.17 3.63 3.63 89 1015.2
20260906164540 20 167 4.8 37.0 1.35 3.48 3.48 89 1015.3
20260906163034 20 207 3.2 20.9 1.07 3.17 3.17 89 1015.3
20260906161532 20 130 0.0 12.9 0.91 3.02 3.02 82 1014.4
20260906160013 21 219 0.0 14.5 0.30 2.41 2.41 88 1014.6
20260906154526 21 304 0.0 0.0 0.03 2.13 2.13 89 1013.3
20260906153108 20 309 0.0 1.6 0.00 2.11 2.11 81 1012.6
20260906151553 20 302 0.0 3.2 0.00 2.11 2.11 79 1012.1
20260906150050 20 134 0.0 0.0 0.00 2.11 2.11 79 1012.2
20260906144536 20 293 0.0 0.0 0.08 2.11 2.11 80 1012.5
20260906143033 20 317 0.0 9.7 0.48 2.11 2.11 80 1012.6
20260906141511 20 300 1.6 11.3 1.70 2.11 2.11 80 1011.8
20260906140011 20 294 0.0 0.0 2.11 2.11 2.11 81 1011.5
20260906134553 20 259 0.0 0.0 2.01 2.01 2.01 83 1011.9
20260906133103 20 306 0.0 1.6 1.57 1.57 1.57 87 1011.6
20260906131534 23 224 0.0 3.2 0.41 0.41 0.41 83 1012.2
20260906130022 25 210 0.0 0.0 0.00 0.00 0.00 78 1010.2
20260906124505 25 217 0.0 3.2 0.00 0.00 0.00 78 1010.5
20260906123005 25 269 0.0 0.0 0.00 0.00 0.00 83 1010.5
20260906121544 25 123 0.0 11.3 0.00 0.00 0.00 86 1010.0
20260906120047 24 151 0.0 6.4 0.00 0.00 0.00 88 1010.1
20260906114544 24 177 0.0 4.8 0.00 0.00 0.00 89 1009.7
20260906113030 23 184 0.0 3.2 0.00 0.00 0.00 89 1009.5
20260906111534 23 127 0.0 0.0 0.00 0.00 0.00 89 1009.2
20260906110028 23 132 0.0 1.6 0.00 0.00 0.00 89 1009.0
20260906104533 24 107 0.0 0.0 0.00 0.00 0.00 89 1009.0
20260906103025 24 132 0.0 0.0 0.00 0.00 0.00 89 1008.9
20260906101524 24 102 0.0 3.2 0.00 0.00 0.00 88 1009.2
20260906100029 24 139 0.0 0.0 0.00 0.00 0.00 88 1009.2
20260906094518 24 127 0.0 0.0 0.00 0.00 0.00 88 1009.3
20260906093008 24 132 0.0 0.0 0.00 0.00 0.00 88 1009.5
20260906091546 24 103 0.0 0.0 0.00 0.00 0.00 88 1009.3
20260906090046 24 143 0.0 3.2 0.00 0.00 0.00 88 1009.1
20260906084526 24 138 0.0 1.6 0.00 0.00 0.00 87 1009.3
20260906083040 24 107 0.0 3.2 0.00 0.00 0.00 87 1009.6
20260906081514 24 105 0.0 1.6 0.00 0.00 0.00 87 1009.8
20260906080011 24 135 0.0 1.6 0.00 0.00 0.00 87 1010.1
20260906074509 25 122 0.0 4.8 0.00 0.00 0.00 86 1010.1
20260906073017 25 120 0.0 3.2 0.00 0.00 0.00 87 1009.9
20260906071508 24 108 0.0 0.0 0.00 0.00 0.00 87 1009.8
20260906070008 24 131 0.0 1.6 0.00 0.00 0.00 87 1009.9
20260906064507 24 99 0.0 0.0 0.00 0.00 0.00 87 1009.9
20260906063006 25 131 0.0 0.0 0.00 0.00 0.00 86 1009.8
20260906061648 25 141 0.0 1.6 0.00 0.00 0.00 86 1009.9
20260906060047 25 131 0.0 8.0 0.00 0.00 0.00 86 1010.0
20260906054528 25 110 0.0 4.8 0.00 0.00 0.00 86 1010.0
20260906053026 25 105 0.0 4.8 0.00 0.00 0.00 86 1009.9
20260906051508 25 107 0.0 3.2 0.00 0.00 0.00 85 1009.7
20260906050005 25 105 0.0 4.8 0.00 0.00 0.00 84 1009.9
20260906044555 25 139 0.0 1.6 0.00 0.00 0.00 83 1009.9
20260906043046 25 132 0.0 8.0 0.00 0.00 0.00 82 1009.8
20260906041529 25 106 0.0 1.6 0.00 0.00 0.00 81 1009.9
20260906040032 25 126 0.0 1.6 0.00 0.00 0.00 80 1010.0
20260906034511 25 107 0.0 3.2 0.00 0.00 0.00 79 1010.1
20260906033013 26 134 0.0 0.0 0.00 0.00 0.00 77 1010.3
20260906031552 26 91 0.0 0.0 0.00 0.00 0.00 76 1010.3
20260906030052 26 72 0.0 0.0 0.00 0.00 0.00 75 1010.4
20260906024546 26 101 0.0 0.0 0.00 0.00 0.00 74 1010.4
20260906023034 27 89 0.0 0.0 0.00 0.00 0.00 73 1010.2
20260906021519 27 93 0.0 0.0 0.00 0.00 0.00 73 1010.0
20260906020016 27 75 0.0 0.0 0.00 0.00 0.00 73 1009.4
20260906014638 27 87 0.0 0.0 0.00 0.00 0.00 72 1009.1
20260906013101 27 79 0.0 0.0 0.00 0.00 0.00 71 1008.7
20260906011542 28 68 0.0 0.0 0.00 0.00 0.00 70 1008.6
20260906010038 28 94 0.0 0.0 0.00 0.00 0.00 68 1008.8
20260906004520 28 88 0.0 1.6 0.00 0.00 0.00 67 1008.6
20260906003020 29 103 0.0 1.6 0.00 0.00 0.00 66 1008.4
20260906001502 30 72 0.0 0.0 0.00 0.00 0.00 63 1008.1
20260906000002 30 116 0.0 0.0 0.00 0.00 0.00 62 1007.8
20260905234544 31 101 0.0 0.0 0.00 0.00 0.00 59 1007.7
20260905233046 32 101 0.0 0.0 0.00 0.00 0.00 57 1007.9
20260905231525 32 70 0.0 0.0 0.00 0.00 0.00 56 1007.7
20260905230025 32 104 0.0 0.0 0.00 0.00 0.00 56 1007.6
20260905224507 31 137 0.0 0.0 0.00 0.00 0.00 57 1007.7
20260905223006 31 103 0.0 0.0 0.00 0.00 0.00 56 1007.8
20260905221605 32 132 0.0 0.0 0.00 0.00 0.00 54 1007.8
20260905220046 32 150 0.0 0.0 0.00 0.00 0.00 54 1007.8
20260905214530 32 229 0.0 1.6 0.00 0.00 0.00 52 1008.1
20260905213027 33 149 0.0 8.0 0.00 0.00 0.00 49 1008.1
20260905211509 33 194 0.0 9.7 0.00 0.00 0.00 48 1007.9
20260905210008 33 221 0.0 4.8 0.00 0.00 0.00 48 1007.8
20260905204551 33 154 0.0 14.5 0.00 0.00 0.00 49 1007.6
20260905203053 33 205 0.0 3.2 0.00 0.00 0.00 46 1007.6
20260905201532 34 141 1.6 11.3 0.00 0.00 0.00 44 1007.5